EDT,Max TemperatureF,Mean TemperatureF,Min TemperatureF,Max Dew PointF,MeanDew PointF,Min DewpointF,Max Humidity, Mean Humidity, Min Humidity, Max Sea Level PressureIn, Mean Sea Level PressureIn, Min Sea Level PressureIn, Max VisibilityMiles, Mean VisibilityMiles, Min VisibilityMiles, Max Wind SpeedMPH, Mean Wind SpeedMPH, Max Gust SpeedMPH,PrecipitationIn, CloudCover, Events, WindDirDegrees
2013-10-1,71,65,59,63,59,57,93,82,70,30.03,29.99,29.93,10,10,8,20,10,25,0.00,5,,218
2013-10-2,72,64,56,63,61,52,93,81,68,30.10,30.00,29.94,10,9,7,18,10,24,0.00,4,,238
2013-10-3,72,61,50,52,47,42,89,62,35,30.13,30.07,30.02,10,10,10,9,4,12,0.01,6,Rain,102
2013-10-4,71,63,55,68,65,58,100,92,84,30.06,30.02,29.99,10,5,0,14,6,18,0.99,8,Rain,243
2013-10-5,66,63,59,62,60,57,100,94,87,30.09,30.06,30.00,10,6,0,15,7,17,0.33,8,Fog-Rain-Thunderstorm,49
2013-10-6,83,72,60,69,64,58,100,81,62,29.97,29.85,29.68,10,8,2,23,8,30,0.12,7,Rain-Thunderstorm,145
2013-10-7,75,62,49,64,52,45,93,77,60,30.08,29.76,29.65,10,8,2,30,15,44,0.83,7,Rain,243
2013-10-8,64,54,44,48,44,42,93,71,48,30.35,30.27,30.09,10,10,10,9,4,13,T,2,Rain,250
2013-10-9,69,57,45,46,43,40,86,62,37,30.40,30.34,30.27,10,10,10,9,4,13,0.00,3,,110
2013-10-10,70,57,44,43,40,36,83,57,30,30.29,30.23,30.14,10,10,10,12,5,16,0.00,6,,100
2013-10-11,72,59,46,53,46,41,89,62,35,30.17,30.14,30.11,10,10,10,14,6,17,0.00,4,,42
2013-10-12,78,62,45,50,43,38,86,55,24,30.19,30.15,30.11,10,10,10,13,6,17,0.00,1,,97
2013-10-13,68,63,57,61,55,39,93,70,46,30.27,30.24,30.16,10,7,2,21,7,30,0.32,7,Rain,203
2013-10-14,64,56,48,55,49,44,93,74,55,30.36,30.31,30.28,10,9,4,16,5,20,0.05,6,Rain,319
2013-10-15,69,58,46,55,49,43,86,73,59,30.29,30.13,29.93,10,10,10,14,7,18,0.00,5,,137
2013-10-16,69,61,53,61,55,46,93,77,60,29.91,29.83,29.76,10,9,2,20,13,26,0.53,7,Rain,205
2013-10-17,60,56,51,52,48,45,100,80,60,29.89,29.81,29.71,10,8,2,18,5,23,0.51,7,Rain,250
2013-10-18,59,53,47,45,42,36,86,65,43,29.91,29.85,29.74,10,10,9,25,14,33,T,5,Rain,251
2013-10-19,59,52,44,49,44,38,93,72,51,29.88,29.75,29.65,10,8,2,22,10,26,0.35,7,Rain,232
2013-10-20,52,47,42,45,40,34,86,73,59,29.98,29.91,29.79,10,10,9,20,9,26,0.03,5,Rain,225
2013-10-21,65,56,46,47,40,36,86,60,34,29.97,29.88,29.80,10,9,4,24,12,30,0.39,6,Rain,211
2013-10-22,50,45,40,48,35,27,93,71,49,29.87,29.82,29.77,10,9,3,30,13,40,0.52,6,Rain,254
2013-10-23,47,42,37,38,35,28,92,75,57,29.84,29.77,29.71,10,10,6,25,7,33,0.03,7,Rain,248
2013-10-24,48,41,34,34,31,29,85,67,49,30.04,29.91,29.82,10,10,10,24,13,35,T,5,Rain,264
2013-10-25,50,43,36,37,34,29,92,74,56,30.21,30.15,30.05,10,10,10,22,8,28,0.13,5,Rain,254
2013-10-26,45,41,36,39,33,26,92,73,53,30.12,29.86,29.78,10,8,2,32,18,43,0.63,8,Rain-Snow,213
2013-10-27,48,43,37,36,33,30,92,75,58,30.06,29.98,29.84,10,10,10,20,9,25,0.00,6,,263
2013-10-28,49,41,32,37,29,19,71,57,42,30.40,30.24,30.05,10,10,10,17,8,22,0.00,4,,337
2013-10-29,49,40,31,31,27,23,75,56,36,30.47,30.40,30.30,10,10,10,10,2,12,T,6,,61
2013-10-30,60,50,39,40,36,33,85,63,40,30.28,30.20,30.09,10,10,10,9,4,12,0.01,5,,82
2013-10-31,67,56,45,58,53,37,100,84,68,30.06,29.74,29.35,10,7,2,32,15,43,1.22,8,Rain,186